Regional Weather Roundup
Issued by NWS Charleston, WV

Home | Current Version | Previous Version | Graphics & Text | Print | Product List | Glossary On
Versions: 1 2 3 4 5 6 7 8 9 10 11 12 13 14 15 16 17 18 19 20 21 22 23 24 25 26 27 28 29 30 31 32 33 34 35 36 37 38 39 40 41 42 43 44 45 46 47 48 49 50
910
ASUS41 KRLX 232310
RWRRLX
CRWRWRRLX ALL
West Virginia Regional Weather Roundup
National Weather Service Charleston WV
Issued by National Weather Service Pittsburgh PA
700 PM EDT THU MAR 23 2017

Note: "fair" indicates few or no clouds below 12,000 feet with no
significant weather and/or obstructions to visibility.

WVZ003-240000-
Northern Panhandle of West Virginia

CITY           SKY/WX    TMP DP  RH WIND       PRES   REMARKS
WHEELING       CLEAR     49   4  16 SE7       30.33F
$$

WVZ009-240000-
Northwest West Virginia

CITY           SKY/WX    TMP DP  RH WIND       PRES   REMARKS
PARKERSBURG    CLEAR     57  16  20 S7        30.33F
$$

WVZ006-240000-
Western West Virginia

CITY           SKY/WX    TMP DP  RH WIND       PRES   REMARKS
HUNTINGTON     CLEAR     62  25  24 VRB3      30.28F
$$

WVZ015-240000-
West Central West Virginia

CITY           SKY/WX    TMP DP  RH WIND       PRES   REMARKS
CHARLESTON     CLEAR     64  21  19 CALM      30.29F
$$

WVZ031-240000-
North Central West Virginia

CITY           SKY/WX    TMP DP  RH WIND       PRES   REMARKS
CLARKSBURG     CLEAR     55   7  14 CALM      30.32F
MORGANTOWN     CLEAR     55  -5   8 CALM      30.34F
$$

WVZ035-042-240000-
South Central West Virginia

CITY           SKY/WX    TMP DP  RH WIND       PRES   REMARKS
BECKLEY        CLEAR     52  19  27 SE10G21   30.33S
BLUEFIELD      CLEAR     51  18  27 S9        30.36S
$$

WVZ045-240000-
Greenbrier Valley of West Virginia

CITY           SKY/WX    TMP DP  RH WIND       PRES   REMARKS
LEWISBURG      CLEAR     49  16  27 SE8       30.38S
$$

WVZ047-240000-
Northern Mountains of West Virginia

CITY           SKY/WX    TMP DP  RH WIND       PRES   REMARKS
ELKINS         CLEAR     55  15  20 SW10      30.33S
$$

WVZ052-240000-
Eastern Panhandle of West Virginia

CITY           SKY/WX    TMP DP  RH WIND       PRES   REMARKS
MARTINSBURG    CLEAR     46   9  22 SE7       30.47R
PETERSBURG     CLEAR     51  22  31 SE9       30.41S
$$




USA.gov is the U.S. government's official web portal to all federal, state and local government web resources and services.